Location: Deurze
(52.9838°N, 6.6090°E)
Time: 18:02:20
(UTC+00:00)

Ariane Rocket - Pass Details

Date: 11 March 2026
Orbit: 754 x 764 km, 98.4° (Epoch: 20 April)

Event Time Altitude Azimuth Distance (km) Brightness Sun altitude
Exits shadow 21:37:45 36° 308° (NW) 1,201 4.4 -34.1°
Drops below altitude 10° 21:41:05 10° 335° (NNW) 2,301 6.2 -34.4°
Sets 21:43:28 0° 342° (NNW) 3,229 7.2 -34.6°
